Wind_Speed
5 5 4 4 2 2 3 3 5 8 9 10 10 11 12 12 11 11 11 10 10 10 9 8 7 7 7 8 8 9 9 8 7 7 7 7 6 6 6 7 7 6 6 5 5 4 3 3 3
6 5 5 4 2 1 1 3 5 7 8 9 9 10 10 10 9 10 10 10 10 9 9 8 7 7 7 7 8 9 8 8 7 7 7 6 6 6 7 7 7 6 6 6 5 5 4 3 3
6 6 5 4 3 2 2 4 6 7 8 10 10 10 10 9 9 10 10 9 9 9 8 8 7 7 7 7 8 8 8 7 7 7 7 6 6 7 7 7 6 5 5 6 5 4 4 3 3
7 6 6 5 3 2 2 4 6 7 9 10 10 11 11 10 10 9 9 9 9 9 8 7 7 7 7 7 8 7 7 7 7 7 7 7 7 7 6 6 4 2 4 4 4 4 4 3 3
8 7 6 5 5 4 2 5 7 8 10 12 11 11 12 10 10 9 9 8 9 8 8 7 7 7 8 7 8 7 7 7 6 6 7 6 7 7 6 5 4 2 1 2 3 4 3 3 3
8 8 6 5 5 3 3 6 10 11 12 13 14 13 12 10 9 9 8 8 8 8 8 7 7 7 7 7 8 8 7 7 6 7 7 7 7 7 6 6 4 3 1 2 2 2 3 3 3
10 8 7 7 6 5 5 5 9 11 12 13 14 13 11 10 10 9 7 7 7 7 8 8 8 7 8 8 8 8 8 7 7 7 7 7 7 7 6 5 4 3 2 2 2 2 2 3 3
10 8 7 7 7 7 7 7 8 11 12 12 13 13 12 12 12 9 7 7 7 8 8 8 8 9 9 9 9 9 8 7 7 7 7 7 7 7 6 5 3 3 3 3 2 2 3 3 4
10 9 8 9 9 8 9 9 9 10 11 13 13 14 13 13 12 10 8 8 8 8 9 9 9 9 9 10 10 9 8 7 7 7 7 7 7 7 6 5 3 3 4 4 4 4 3 3 4
10 10 10 11 11 9 9 10 10 10 11 12 15 14 13 13 11 10 9 9 9 9 9 9 9 9 9 9 9 9 9 8 7 7 7 7 8 7 6 6 4 4 5 4 4 4 4 4 5
11 11 12 13 12 11 10 11 13 13 11 12 14 14 13 12 12 11 11 10 10 9 9 9 9 9 9 9 9 10 9 9 8 8 7 7 7 8 7 6 5 5 5 5 5 5 5 5 6
12 13 14 13 12 12 11 12 13 15 14 14 14 14 14 14 13 12 11 10 9 10 10 10 10 9 9 9 10 10 10 9 9 8 7 8 7 7 8 7 6 4 4 5 5 5 5 6 6
13 14 14 13 13 14 13 13 14 14 15 15 15 14 14 14 13 13 12 11 10 10 10 10 10 9 9 10 10 10 10 9 8 8 8 8 8 8 7 7 6 5 5 4 5 6 5 5 6
13 13 14 14 14 14 14 14 15 15 14 14 14 14 15 14 13 14 13 12 11 11 10 10 10 9 9 10 10 10 10 9 9 9 9 8 8 8 8 7 6 5 5 5 5 5 5 6 6
14 14 13 13 12 13 14 14 15 15 14 14 15 16 16 15 14 14 13 12 12 11 10 10 11 11 10 10 9 10 10 10 10 10 9 9 8 8 8 7 7 6 6 5 5 5 5 6 6
14 14 13 12 13 13 14 14 13 14 15 15 16 17 17 15 14 14 14 13 12 11 10 10 11 11 11 11 10 10 10 11 10 10 10 10 9 9 8 7 7 7 7 5 5 5 5 5 5
14 14 14 14 14 15 15 14 13 13 14 15 16 17 16 15 14 14 14 14 14 13 12 11 11 11 11 11 11 11 11 11 11 11 11 10 10 10 9 8 7 7 7 6 6 6 5 5 5
14 15 14 14 14 15 15 14 14 14 15 15 16 17 16 15 15 15 15 15 15 15 14 13 13 12 12 12 12 12 11 11 11 11 11 11 11 10 9 9 8 8 7 7 6 6 6 5 5
15 16 15 14 14 15 15 15 14 14 14 15 16 17 17 15 15 15 14 15 16 16 16 17 15 13 13 12 13 13 12 12 12 12 11 11 11 10 10 10 9 9 8 7 7 7 7 6 6
15 15 14 13 14 15 16 16 15 14 15 16 17 17 17 16 16 15 15 16 16 16 17 17 16 14 14 13 13 13 13 13 13 13 12 12 12 11 11 10 10 9 9 8 8 7 7 7 7
16 17 15 14 14 16 18 18 18 17 18 17 17 18 18 17 16 16 15 15 15 16 18 18 17 16 15 14 14 14 14 14 14 13 13 13 13 12 12 11 11 11 10 9 9 8 8 8 8
17 16 16 15 16 18 19 20 19 20 20 18 18 19 19 18 18 18 17 16 16 17 18 18 17 16 15 15 15 15 15 15 15 14 14 14 14 13 13 13 12 12 12 11 10 10 10 9 9
17 17 18 17 18 19 20 20 19 20 21 19 19 19 19 20 20 19 18 18 18 18 19 19 18 17 16 16 16 16 16 16 16 15 15 14 14 14 14 14 13 13 13 12 12 11 11 11 10
17 17 18 18 19 19 18 19 18 19 20 19 19 19 20 20 21 21 19 19 20 19 19 19 18 17 17 17 17 17 17 17 17 17 16 15 15 15 14 14 14 14 13 13 13 13 12 12 11
16 17 18 18 19 18 18 19 17 17 18 19 18 18 19 19 21 20 20 20 20 20 19 19 19 18 18 18 18 18 18 18 18 17 17 16 16 15 14 14 14 14 14 14 14 14 14 13 13
16 16 17 18 19 18 19 20 18 17 17 18 19 19 20 19 20 20 21 21 22 21 21 20 20 20 19 20 19 19 19 18 18 18 18 17 16 15 15 15 15 14 13 14 15 15 14 14 14
16 16 17 18 18 19 21 21 20 20 19 19 19 21 21 20 21 22 22 21 22 22 22 22 21 20 21 21 21 21 21 20 19 19 19 18 17 17 16 16 16 15 15 15 15 16 15 15 15
16 17 18 19 19 20 21 21 21 22 22 22 22 21 21 22 23 22 21 22 22 22 23 22 22 21 21 22 22 22 22 21 21 20 19 19 18 18 17 17 17 17 17 17 17 17 16 16 17
18 18 19 20 22 23 23 22 21 22 22 22 21 21 21 22 22 21 22 22 22 22 23 23 23 23 23 23 23 23 23 22 22 21 20 20 19 19 18 17 17 17 18 19 18 18 18 18 18
19 20 21 22 23 23 25 25 23 23 22 23 23 23 22 22 22 22 22 21 21 21 21 22 23 23 24 24 24 24 24 23 22 21 21 21 20 19 19 18 18 18 18 19 19 19 19 19 19
Wind_Direction
160 162 156 145 121 88 38 31 16 8 359 356 355 352 354 357 360 354 355 356 1 0 359 358 357 359 359 358 358 354 348 342 335 336 336 331 324 319 310 298 289 276 268 265 262 259 254 258 249
175 178 170 158 163 230 33 16 11 354 352 351 350 347 348 347 350 349 350 354 358 356 353 355 351 352 354 355 355 354 351 346 340 340 337 332 327 322 310 303 292 276 265 261 258 253 250 249 233
189 189 188 178 200 274 318 349 1 352 344 342 343 340 341 340 341 345 347 349 350 350 349 351 352 349 349 349 350 352 351 348 345 343 337 332 330 323 316 315 306 270 254 251 251 243 237 230 216
202 199 201 203 213 252 308 330 343 339 339 334 330 331 333 336 336 339 341 342 343 345 345 346 351 351 349 346 347 350 352 350 349 347 339 332 329 325 324 329 329 285 237 240 240 238 231 221 209
213 208 208 217 225 228 279 315 324 329 330 329 327 327 331 333 331 332 336 339 343 344 342 344 350 348 344 343 344 345 348 349 349 346 340 335 331 324 323 326 340 332 268 223 224 231 224 216 212
219 217 223 226 232 245 299 316 324 328 329 325 323 324 328 331 327 328 331 338 342 341 343 348 348 349 346 342 343 341 344 344 344 344 340 338 336 329 324 323 337 328 257 216 233 234 215 219 211
224 229 228 234 244 256 279 304 314 321 321 321 319 325 328 327 326 325 329 335 336 335 340 347 347 347 345 341 339 338 340 340 338 340 338 336 333 329 322 322 323 315 308 284 262 253 241 224 208
226 229 222 232 240 255 273 282 292 302 307 313 316 319 323 322 324 321 322 326 333 335 338 339 342 341 338 339 340 338 337 335 332 335 332 332 331 324 317 318 312 303 300 290 271 261 261 244 218
227 230 224 228 238 250 263 266 278 292 303 309 310 313 316 315 317 315 316 321 327 333 336 333 332 336 342 339 340 338 338 332 327 328 329 328 328 324 321 320 300 284 289 290 276 271 263 247 229
228 230 230 231 238 253 263 259 274 282 291 305 310 314 316 313 315 318 317 319 324 327 334 336 334 334 337 336 336 335 336 334 327 325 328 328 327 321 317 315 298 276 271 273 270 269 260 246 241
229 231 236 241 246 252 263 269 279 282 290 301 307 309 314 313 313 314 312 312 318 322 326 332 332 331 333 335 335 334 335 338 336 328 329 328 327 324 315 310 303 287 271 260 253 262 254 246 237
229 235 242 250 254 257 264 267 274 285 292 297 300 301 306 311 311 309 309 311 311 316 318 322 326 327 329 332 334 334 333 333 335 335 329 328 328 325 321 312 303 293 275 258 248 248 248 246 239
232 233 238 244 253 254 257 266 273 281 290 294 295 293 298 304 307 309 308 306 308 311 312 314 316 321 324 329 331 331 331 332 334 335 329 322 324 323 319 319 310 295 280 268 262 255 257 254 247
231 235 238 243 249 251 257 266 270 279 286 290 290 290 290 297 301 303 304 302 303 305 304 305 307 311 316 322 326 327 329 330 332 331 330 319 317 318 315 314 312 295 283 271 259 256 252 253 249
236 240 243 243 249 254 260 268 275 280 283 286 289 291 294 296 296 295 295 296 300 302 304 304 304 306 309 314 318 321 324 324 326 327 328 321 316 316 315 308 307 299 291 275 256 256 258 249 246
240 245 248 250 251 256 265 269 276 277 281 285 289 291 294 294 294 294 292 290 295 299 301 300 301 303 304 307 308 311 315 318 320 322 323 323 319 314 311 306 303 298 288 275 267 266 261 263 260
242 246 250 252 255 257 262 269 274 275 280 285 288 290 292 296 295 292 294 293 295 294 292 293 297 302 302 304 308 309 310 313 313 314 314 319 321 313 308 303 296 294 289 283 278 275 268 268 266
246 250 252 252 255 257 262 269 274 273 276 281 286 290 291 294 294 290 295 293 293 293 294 294 298 297 300 302 302 302 303 305 306 304 306 310 314 313 306 301 294 292 289 283 279 275 273 271 267
243 248 255 251 252 259 261 263 266 271 273 279 286 289 288 293 295 292 293 291 291 292 294 296 291 291 294 298 299 297 298 300 302 299 300 304 307 305 303 299 293 288 283 276 275 272 270 270 271
244 247 250 249 253 261 263 260 264 267 272 275 283 288 291 293 294 294 293 290 288 289 293 292 292 290 291 292 293 292 293 295 297 293 294 298 300 298 296 293 288 283 276 275 273 268 268 271 271
246 250 250 253 256 259 260 260 262 268 272 275 279 281 286 287 289 291 291 290 287 290 290 288 285 286 287 288 288 286 289 291 293 295 296 296 294 290 288 287 284 279 274 272 271 267 267 272 269
247 250 250 255 260 262 264 267 264 270 271 271 272 273 278 285 293 293 289 289 287 288 288 288 285 285 287 286 285 286 287 288 289 292 293 295 292 287 283 283 282 276 270 266 267 268 265 265 265
251 248 249 253 259 261 261 266 268 270 269 267 267 270 278 284 290 293 293 289 287 287 287 287 285 286 284 282 282 284 285 285 286 287 287 290 292 289 280 278 278 274 269 265 266 270 267 263 265
254 250 251 253 257 260 262 266 268 269 268 267 269 271 278 282 287 288 286 285 283 284 283 284 285 284 281 279 279 280 283 283 283 285 285 286 287 287 284 278 274 272 267 265 266 267 264 265 265
253 251 251 253 255 260 262 265 271 273 271 272 274 277 279 282 285 289 287 283 282 284 284 283 283 281 278 277 277 278 281 281 280 282 282 280 283 283 280 278 277 276 270 264 267 268 263 265 266
253 253 254 257 260 263 264 269 272 275 277 276 278 279 278 279 282 285 282 279 279 281 281 281 280 279 278 277 277 278 281 281 278 279 276 275 279 281 278 279 276 277 273 266 265 267 265 266 268
250 252 254 257 262 265 265 268 270 271 277 282 280 278 276 277 280 280 277 278 280 280 278 277 275 275 275 275 275 276 279 279 278 278 275 272 273 276 276 273 273 273 271 268 263 265 267 269 269
249 250 253 255 262 266 266 267 270 273 277 281 282 279 280 280 278 279 283 282 281 279 278 277 274 273 272 272 272 273 275 277 277 276 275 274 272 273 272 269 270 270 268 267 267 266 267 270 270
251 250 253 256 260 264 266 268 272 275 278 282 283 285 286 281 276 279 282 282 280 280 281 278 276 276 274 273 272 272 273 275 275 274 273 272 271 269 268 266 269 269 269 268 270 268 266 269 270
256 252 254 257 261 266 269 272 275 276 277 281 282 282 285 284 281 282 283 283 282 281 280 278 278 277 276 274 272 271 272 273 273 271 270 269 268 266 265 266 266 267 268 267 269 270 268 267 267
Height
5910 5910 5911 5912 5912 5911 5910 5909 5908 5908 5908 5908 5906 5906 5905 5904 5904 5904 5900 5898 5896 5895 5894 5892 5891 5890 5889 5888 5887 5885 5884 5883 5882 5881 5880 5879 5878 5876 5875 5873 5872 5871 5871 5871 5872 5872 5872 5872 5872
5910 5910 5911 5911 5911 5910 5910 5909 5908 5908 5908 5907 5907 5906 5906 5904 5903 5901 5899 5897 5896 5895 5894 5892 5891 5890 5889 5888 5886 5885 5884 5883 5881 5880 5879 5878 5877 5875 5873 5871 5869 5869 5869 5870 5871 5872 5872 5872 5872
5909 5909 5911 5910 5909 5909 5909 5908 5907 5907 5907 5906 5906 5906 5905 5904 5902 5901 5899 5897 5896 5895 5894 5892 5891 5890 5889 5887 5886 5885 5883 5882 5881 5880 5879 5878 5876 5874 5872 5869 5865 5865 5866 5868 5870 5871 5871 5871 5872
5909 5909 5910 5910 5909 5908 5908 5907 5907 5905 5906 5906 5906 5905 5904 5904 5902 5900 5899 5897 5896 5894 5893 5892 5891 5889 5888 5887 5886 5884 5883 5882 5880 5879 5878 5877 5876 5874 5872 5868 5865 5864 5865 5867 5869 5870 5870 5871 5871
5908 5909 5909 5908 5908 5907 5906 5906 5906 5906 5905 5905 5905 5904 5903 5903 5901 5899 5898 5897 5895 5894 5893 5891 5890 5889 5888 5887 5886 5884 5883 5881 5880 5879 5878 5876 5875 5874 5872 5869 5867 5866 5866 5867 5868 5869 5870 5870 5871
5907 5908 5908 5907 5907 5906 5905 5905 5905 5905 5904 5904 5904 5903 5902 5902 5900 5898 5897 5896 5895 5893 5892 5891 5890 5889 5887 5886 5885 5884 5882 5881 5880 5879 5877 5876 5874 5873 5872 5870 5869 5867 5867 5868 5868 5869 5869 5870 5870
5906 5906 5906 5907 5906 5906 5905 5904 5904 5903 5903 5903 5903 5902 5901 5901 5899 5898 5896 5895 5894 5893 5892 5891 5889 5888 5887 5886 5884 5883 5882 5881 5879 5878 5877 5875 5874 5873 5872 5870 5869 5868 5868 5868 5869 5869 5869 5870 5870
5904 5906 5905 5905 5905 5905 5904 5903 5903 5902 5901 5902 5901 5900 5900 5899 5898 5897 5896 5894 5894 5893 5891 5890 5889 5887 5886 5885 5884 5882 5881 5880 5878 5877 5876 5875 5873 5872 5871 5870 5869 5869 5868 5868 5869 5869 5869 5869 5870
5902 5904 5903 5904 5904 5903 5903 5902 5901 5901 5900 5900 5899 5899 5898 5897 5896 5896 5895 5894 5892 5891 5890 5889 5888 5887 5885 5884 5883 5882 5880 5879 5877 5876 5875 5874 5873 5871 5870 5869 5868 5868 5868 5868 5868 5868 5868 5869 5869
5900 5902 5902 5902 5902 5901 5901 5900 5900 5900 5899 5899 5898 5897 5896 5896 5895 5894 5894 5893 5891 5890 5889 5888 5887 5885 5884 5883 5882 5881 5879 5877 5876 5875 5874 5873 5872 5871 5870 5869 5867 5867 5867 5867 5867 5867 5867 5868 5868
5898 5899 5899 5899 5899 5899 5899 5898 5898 5897 5897 5897 5896 5895 5894 5894 5893 5893 5892 5891 5890 5889 5888 5887 5886 5884 5883 5882 5881 5879 5878 5876 5875 5874 5873 5872 5871 5870 5869 5868 5867 5866 5866 5866 5866 5866 5866 5867 5867
5895 5896 5896 5897 5897 5897 5897 5897 5897 5896 5897 5896 5894 5893 5892 5892 5891 5891 5890 5889 5888 5887 5886 5885 5884 5883 5882 5881 5879 5878 5877 5875 5874 5873 5872 5871 5870 5869 5868 5867 5866 5865 5865 5865 5865 5865 5865 5866 5866
5893 5894 5894 5894 5894 5894 5894 5894 5894 5894 5894 5894 5893 5891 5890 5890 5889 5889 5888 5887 5886 5886 5884 5883 5882 5881 5880 5879 5878 5877 5876 5874 5873 5872 5871 5870 5869 5868 5867 5866 5865 5864 5863 5863 5864 5864 5864 5864 5864
5890 5891 5892 5893 5893 5892 5892 5892 5892 5892 5892 5891 5891 5890 5888 5888 5887 5887 5886 5884 5884 5883 5882 5881 5880 5879 5878 5877 5876 5875 5874 5873 5871 5871 5870 5869 5868 5866 5865 5864 5863 5863 5862 5862 5862 5863 5863 5863 5863
5887 5888 5890 5890 5890 5890 5890 5890 5890 5889 5889 5889 5888 5887 5886 5885 5885 5884 5883 5882 5881 5880 5879 5878 5877 5877 5876 5875 5874 5873 5872 5871 5870 5869 5868 5867 5866 5865 5864 5863 5862 5861 5861 5860 5861 5861 5861 5861 5862
5885 5886 5887 5888 5887 5887 5888 5887 5887 5886 5886 5886 5885 5885 5883 5881 5881 5881 5880 5879 5877 5876 5876 5876 5875 5874 5874 5873 5872 5871 5870 5869 5868 5867 5866 5865 5864 5863 5862 5861 5861 5860 5859 5859 5859 5860 5860 5860 5860
5882 5883 5883 5885 5884 5884 5884 5883 5884 5884 5883 5883 5882 5881 5880 5879 5878 5878 5877 5876 5875 5874 5873 5873 5872 5872 5871 5870 5869 5869 5868 5867 5866 5865 5864 5863 5862 5861 5860 5859 5859 5859 5858 5858 5858 5858 5858 5858 5858
5879 5879 5879 5880 5880 5880 5879 5879 5880 5880 5880 5879 5879 5878 5877 5876 5876 5875 5874 5872 5872 5871 5870 5870 5869 5868 5867 5867 5866 5866 5865 5865 5864 5863 5862 5861 5860 5859 5858 5858 5857 5857 5856 5856 5856 5856 5856 5857 5857
5874 5875 5875 5876 5876 5876 5875 5875 5876 5876 5876 5875 5875 5874 5873 5873 5873 5872 5871 5870 5869 5869 5868 5867 5865 5865 5864 5863 5863 5863 5862 5862 5861 5860 5859 5858 5857 5856 5856 5855 5855 5854 5854 5854 5854 5854 5854 5855 5855
5870 5870 5871 5873 5872 5872 5872 5872 5872 5872 5872 5872 5871 5870 5869 5869 5869 5868 5867 5866 5866 5865 5864 5863 5862 5861 5860 5860 5860 5860 5859 5858 5858 5857 5856 5855 5854 5853 5853 5853 5852 5852 5852 5852 5852 5852 5852 5852 5853
5866 5866 5868 5868 5868 5867 5868 5868 5868 5869 5868 5868 5867 5866 5866 5865 5864 5864 5864 5863 5862 5861 5861 5859 5858 5858 5857 5857 5857 5856 5855 5855 5854 5854 5853 5852 5851 5851 5850 5849 5849 5849 5849 5849 5849 5849 5850 5850 5850
5862 5863 5863 5863 5863 5863 5864 5863 5864 5864 5864 5864 5863 5862 5862 5862 5861 5860 5859 5859 5858 5857 5857 5856 5854 5854 5853 5853 5853 5852 5852 5851 5850 5850 5849 5848 5847 5847 5847 5846 5846 5846 5846 5846 5846 5846 5847 5847 5847
5857 5858 5858 5859 5859 5859 5859 5859 5860 5859 5859 5859 5859 5858 5858 5857 5856 5856 5855 5854 5854 5853 5852 5851 5850 5850 5849 5849 5849 5848 5847 5847 5846 5846 5845 5844 5843 5843 5843 5842 5842 5842 5842 5843 5843 5843 5843 5844 5844
5852 5853 5854 5854 5854 5854 5855 5854 5855 5854 5853 5853 5853 5852 5852 5852 5851 5850 5849 5849 5848 5848 5847 5846 5845 5845 5845 5844 5844 5844 5843 5842 5842 5841 5841 5840 5839 5839 5839 5838 5838 5838 5838 5839 5839 5840 5840 5840 5840
5848 5849 5849 5849 5849 5850 5850 5849 5850 5848 5848 5847 5847 5847 5846 5846 5845 5844 5843 5843 5843 5842 5842 5841 5840 5840 5840 5840 5839 5839 5839 5838 5837 5836 5836 5836 5835 5835 5834 5834 5834 5834 5834 5835 5835 5836 5836 5836 5836
5843 5844 5845 5845 5845 5845 5845 5843 5845 5844 5843 5843 5842 5841 5841 5840 5839 5838 5838 5837 5837 5836 5835 5835 5835 5835 5835 5834 5834 5834 5833 5833 5833 5832 5831 5831 5830 5830 5830 5830 5830 5830 5830 5830 5831 5831 5832 5832 5832
5839 5839 5840 5840 5839 5839 5839 5838 5838 5838 5838 5838 5837 5836 5835 5835 5833 5832 5832 5831 5831 5830 5829 5829 5829 5829 5829 5829 5828 5828 5828 5828 5827 5827 5826 5826 5825 5825 5825 5826 5825 5825 5826 5826 5826 5827 5827 5827 5828
5835 5835 5835 5835 5834 5833 5833 5833 5833 5833 5833 5833 5832 5831 5830 5829 5828 5827 5826 5825 5824 5824 5823 5822 5822 5822 5822 5822 5822 5822 5822 5822 5821 5821 5821 5820 5820 5820 5820 5821 5821 5821 5821 5822 5822 5822 5822 5822 5823
5830 5830 5830 5829 5829 5829 5828 5830 5829 5828 5828 5827 5826 5825 5824 5823 5822 5821 5820 5819 5818 5817 5817 5816 5816 5816 5816 5816 5815 5815 5816 5815 5815 5815 5815 5815 5815 5815 5815 5815 5816 5816 5816 5817 5817 5817 5817 5817 5817
5825 5825 5825 5825 5824 5824 5823 5826 5823 5823 5822 5821 5820 5820 5819 5818 5816 5815 5814 5812 5812 5811 5810 5810 5810 5809 5809 5809 5808 5808 5808 5809 5809 5808 5808 5808 5809 5809 5809 5810 5810 5811 5811 5811 5811 5812 5812 5812 5812